Vertical_Velocity
-2 -2 -4 1 1 -1 -8 5 3 -5 3 3 4 -2 -1 5 6 4 -3 2 3 4 -1 1 0 -1 0 -1 -1 -6 -2 1 -3 -13 5 6 9 4 4 8 -5 -2 2 -69
-3 -3 -3 4 6 1 -0 -0 2 12 11 -9 -0 -5 8 2 -3 2 2 -1 2 1 -5 1 -0 -0 -1 0 -1 2 -4 -2 0 4 6 6 -3 5 2 5 23 -17 18 -41
-2 -3 -1 2 7 -2 -8 -5 14 16 38 2 -3 8 -0 -3 -1 3 2 -2 1 -1 -0 0 -2 -3 -1 -1 3 3 1 4 -5 -5 -2 13 -2 1 11 20 13 -18 -23 -27
-3 -3 0 -2 4 1 8 18 17 -1 -12 -5 -10 0 2 -2 -7 3 2 1 1 -1 -3 -1 -4 -2 -0 -0 -1 -4 2 -3 -2 -2 -4 4 -2 -4 -1 34 -11 19 -29 10
-2 -4 -2 6 -8 2 -7 17 14 10 -7 3 -4 3 -5 -3 -0 5 1 -0 -2 -0 -1 -1 -1 -2 -3 -2 2 3 -1 -5 1 -10 -5 -5 -1 0 7 5 4 -4 4 -23
-1 -4 -2 -3 -6 -3 0 7 11 7 -4 3 9 -1 -6 -4 4 -3 -2 -2 -0 -4 0 -1 -2 -2 -1 0 5 -1 4 3 0 -12 -1 5 4 -0 4 2 -0 -0 -4 -1
-0 -4 -4 -4 -4 -3 -6 -8 5 17 14 3 4 -2 -1 -1 0 1 -1 -4 -3 -0 -0 0 -4 -3 0 1 -3 2 3 2 1 -10 -8 3 5 -5 0 8 3 0 1 1
-1 -2 -3 -3 -1 -1 -2 -11 -17 -12 -3 -7 -6 -5 1 -3 -4 -1 -2 -2 1 0 -1 -1 -4 -2 -1 -7 2 1 5 5 -4 1 2 -16 2 1 -6 -2 6 4 3 1
-3 -3 0 -1 1 -5 -9 -9 1 2 4 -3 6 1 0 -5 -1 -0 -3 -0 -0 -2 -4 1 -0 -1 -1 2 3 2 6 2 8 3 3 1 4 2 -5 3 0 1 4 4
1 -2 -1 -2 1 4 -3 -2 -0 -0 0 -1 -5 0 -1 0 -3 -1 -0 -2 -1 1 -1 5 -1 -4 -1 1 1 -1 0 3 -6 2 -0 -11 5 3 -1 -5 -4 6 -2 4
-3 1 -3 -0 0 -1 -9 1 3 -1 4 1 2 2 2 -2 -1 -1 -0 2 -2 -1 4 2 -3 -1 -0 1 -0 -3 -2 -2 -3 3 3 -6 0 2 2 5 -15 -3 4 -1
-1 -2 -4 -1 -2 -4 -2 5 -2 -2 -3 1 -1 -3 -2 -1 -4 -4 -1 -4 -0 -2 1 -2 3 3 0 -0 2 1 -4 -6 5 -5 -5 2 0 0 0 2 4 1 -4 -11
-3 -3 -1 -1 -3 -1 -1 -4 -1 0 -1 1 -3 0 3 1 0 2 2 -1 -0 1 3 6 0 -1 1 0 -6 3 -2 3 -6 4 4 4 1 -2 -0 -1 5 4 2 3
0 -4 -4 -3 -2 -3 1 -1 -1 6 0 0 0 -1 -1 -0 1 1 1 4 3 5 2 -2 8 -2 -1 -2 -1 -1 0 1 3 -2 -1 -1 -2 -1 -0 1 -4 2 3 0
1 -2 -2 -2 -3 -0 3 2 0 1 -1 1 -0 -1 -1 2 2 -0 2 5 3 2 -0 1 -5 4 2 1 0 -10 -1 1 3 -1 -1 1 -1 1 1 1 -4 -3 3 4
-3 0 -4 -2 -3 -1 0 -1 -3 -2 1 1 -2 -0 -0 -3 -0 4 -0 1 2 1 1 -0 -4 -1 2 -2 -5 -3 1 0 0 -3 -0 1 -0 1 1 -3 2 -0 -5 1
-2 -2 -2 0 -1 -3 -3 -3 -3 2 -3 5 -3 -2 -1 1 2 0 3 1 -0 4 2 -5 -4 -4 -2 -6 -15 5 -1 1 1 2 2 1 1 1 1 2 4 -13 -4 2
0 0 2 4 1 4 1 -2 0 -0 6 -1 -0 -1 -4 -2 -0 1 4 6 4 -1 5 -0 -6 3 -1 -15 3 1 -1 -2 -3 -0 2 -0 -0 3 -3 -4 2 -9 4 2
-1 -1 2 1 -1 -2 8 -2 0 0 -1 -3 -1 -1 -0 -1 1 -1 3 3 4 3 -0 -3 4 2 -15 5 3 1 0 1 1 2 -2 -1 2 3 1 4 2 -0 1 -3
-2 -1 3 4 0 4 7 0 1 0 -3 -5 -4 1 -0 -1 1 -0 1 4 3 2 1 2 -2 -17 4 2 5 1 0 1 1 -1 -5 -1 -1 -3 3 3 3 -4 1 1
-1 -2 -3 -1 0 7 5 -1 -1 -1 -2 -1 0 1 1 1 2 -1 -1 1 1 0 0 -2 -1 -2 1 0 -0 -3 2 2 -1 2 -1 -1 -5 -3 1 -4 0 -8 -1 3
-2 -5 -1 1 2 3 -3 -0 -1 -1 -0 0 0 -0 -1 1 2 4 2 -0 1 1 2 1 -1 1 2 2 1 -1 -1 -2 1 0 -2 -2 -1 -1 1 1 1 -1 -1 1
1 -2 0 -5 1 3 -1 -3 -4 0 -0 1 1 1 -0 -3 -3 0 -0 -0 -1 1 1 -1 3 2 0 1 1 -0 1 2 -0 0 -2 -2 -1 -3 -1 2 -0 -0 -1 -1
-1 -0 -3 0 4 2 2 -5 -1 2 1 -0 -0 2 -0 0 1 -1 -1 -1 -1 -1 -1 2 2 0 1 1 1 0 -0 -0 1 1 1 1 2 1 -0 -4 2 0 -0 1
-3 -1 0 -1 -0 -1 -1 -2 -0 1 1 -0 -1 -0 -2 -1 -3 -4 -2 -1 -1 -1 2 1 1 1 0 2 1 1 0 0 1 2 2 2 2 1 3 -0 -0 2 2 4
-0 1 -0 -0 -1 -0 -4 1 2 1 -1 -1 2 1 1 -2 -0 -1 -2 -1 -1 2 3 3 2 2 1 -0 1 1 1 1 1 1 1 1 2 3 4 4 2 2 -0 3
-2 -3 1 -1 -2 -1 -1 1 1 1 1 -3 8 0 -0 2 -1 -3 -2 1 4 2 0 2 2 1 1 0 -0 0 1 0 0 1 1 2 3 3 3 3 1 -1 1 -1
Height
2961 2955 2949 2947 2944 2939 2936 2931 2932 2935 2940 2946 2952 2957 2961 2965 2969 2975 2979 2983 2986 2990 2995 2999 3004 3007 3010 3011 3014 3016 3018 3020 3016 3012 3013 3014 3014 3013 3014 3013 3003 2997 2992 2956
2959 2953 2947 2945 2943 2939 2936 2933 2931 2935 2942 2947 2953 2959 2962 2965 2971 2976 2981 2983 2988 2991 2995 3001 3003 3005 3008 3009 3012 3014 3015 3015 3013 3007 3009 3007 3005 3003 3003 2997 2996 2980 2985 2961
2957 2951 2946 2945 2943 2940 2936 2933 2934 2939 2942 2950 2954 2957 2962 2967 2973 2978 2982 2984 2988 2992 2995 2998 3000 3003 3005 3007 3009 3010 3012 3009 3007 3002 3000 3005 2999 2994 2990 2988 2984 2969 2965 2955
2955 2950 2947 2945 2943 2941 2937 2934 2936 2940 2946 2951 2957 2960 2967 2970 2973 2979 2982 2985 2989 2992 2995 2997 2999 3001 3002 3004 3005 3006 3007 3003 3001 2997 2995 2994 2989 2981 2976 2974 2967 2967 2946 2956
2954 2949 2948 2947 2946 2944 2941 2937 2943 2946 2952 2955 2959 2964 2967 2971 2976 2979 2982 2986 2989 2991 2994 2996 2997 2998 2999 3001 3002 3003 3002 3000 2997 2990 2989 2986 2979 2975 2969 2962 2956 2953 2951 2947
2954 2950 2948 2949 2948 2946 2943 2942 2944 2946 2948 2952 2958 2961 2966 2970 2975 2980 2983 2985 2987 2990 2992 2992 2993 2995 2996 2997 2998 2998 2999 2998 2997 2986 2986 2980 2975 2971 2965 2958 2953 2950 2947 2944
2953 2950 2950 2949 2948 2948 2946 2943 2944 2948 2950 2952 2955 2959 2965 2969 2975 2979 2981 2984 2987 2990 2990 2991 2991 2992 2992 2992 2994 2995 2995 2997 2997 2989 2985 2975 2973 2969 2962 2956 2951 2947 2944 2944
2952 2949 2950 2949 2948 2948 2949 2947 2948 2947 2949 2952 2955 2959 2964 2969 2974 2978 2980 2984 2986 2987 2989 2989 2990 2990 2989 2987 2987 2989 2992 2995 2996 2992 2986 2975 2970 2967 2962 2958 2954 2949 2947 2946
2950 2949 2949 2948 2948 2949 2950 2949 2950 2951 2953 2955 2957 2961 2964 2968 2973 2977 2979 2982 2984 2985 2987 2988 2988 2988 2986 2986 2985 2985 2988 2992 2994 2991 2988 2976 2970 2967 2963 2959 2957 2953 2950 2950
2948 2948 2948 2947 2947 2949 2951 2952 2952 2953 2954 2957 2958 2961 2964 2968 2972 2975 2977 2979 2981 2983 2983 2984 2984 2985 2984 2983 2983 2983 2985 2987 2987 2988 2988 2975 2970 2967 2963 2961 2964 2956 2954 2953
2946 2946 2947 2947 2948 2950 2951 2953 2953 2955 2955 2958 2960 2963 2966 2969 2971 2974 2976 2978 2978 2980 2980 2980 2980 2980 2980 2979 2980 2981 2982 2983 2981 2983 2983 2976 2969 2968 2967 2966 2961 2958 2956 2956
2944 2944 2945 2946 2947 2950 2950 2952 2954 2956 2958 2960 2961 2964 2966 2968 2970 2972 2973 2974 2974 2975 2976 2976 2976 2976 2976 2976 2977 2977 2980 2978 2978 2977 2972 2970 2968 2967 2965 2964 2962 2960 2960 2957
2942 2942 2943 2945 2946 2948 2950 2953 2954 2956 2958 2961 2962 2963 2965 2966 2967 2968 2969 2969 2971 2971 2972 2973 2973 2974 2973 2974 2974 2974 2973 2974 2973 2972 2970 2968 2967 2965 2965 2963 2961 2958 2955 2957
2939 2939 2940 2942 2944 2947 2950 2952 2955 2957 2959 2960 2962 2961 2962 2963 2963 2964 2964 2964 2965 2967 2968 2969 2969 2970 2970 2970 2971 2971 2972 2971 2970 2968 2968 2967 2964 2963 2963 2962 2961 2958 2956 2955
2936 2935 2937 2939 2942 2946 2949 2952 2955 2956 2960 2959 2959 2960 2960 2959 2959 2959 2960 2960 2961 2963 2965 2965 2967 2967 2969 2967 2967 2965 2967 2968 2968 2967 2967 2966 2964 2963 2962 2962 2962 2959 2958 2958
2932 2930 2932 2937 2941 2945 2949 2952 2955 2955 2957 2958 2958 2958 2957 2956 2955 2955 2955 2955 2957 2959 2960 2962 2963 2965 2967 2965 2961 2960 2962 2963 2963 2963 2964 2964 2963 2962 2962 2962 2961 2961 2962 2961
2926 2925 2928 2933 2938 2943 2947 2952 2954 2955 2956 2957 2957 2955 2954 2952 2952 2952 2951 2951 2952 2955 2957 2958 2960 2962 2962 2959 2954 2957 2959 2960 2960 2960 2960 2961 2961 2961 2961 2961 2961 2959 2962 2963
2923 2923 2926 2932 2937 2942 2947 2950 2952 2954 2955 2956 2955 2953 2953 2952 2951 2951 2950 2949 2950 2952 2955 2956 2956 2957 2956 2951 2949 2949 2951 2953 2954 2955 2956 2957 2957 2958 2958 2959 2961 2961 2963 2963
2924 2924 2927 2932 2937 2943 2946 2948 2951 2952 2956 2954 2953 2952 2952 2951 2951 2950 2950 2950 2950 2951 2951 2952 2953 2950 2946 2945 2945 2945 2946 2947 2948 2950 2951 2952 2953 2955 2955 2956 2958 2960 2961 2963
2926 2927 2930 2933 2937 2942 2946 2949 2950 2951 2951 2952 2950 2951 2951 2952 2950 2950 2950 2949 2949 2949 2949 2948 2945 2939 2940 2940 2942 2943 2943 2944 2946 2948 2948 2949 2951 2952 2953 2954 2956 2959 2963 2966
2928 2929 2931 2934 2939 2943 2945 2947 2948 2949 2949 2947 2946 2946 2948 2950 2949 2949 2950 2948 2947 2946 2946 2945 2941 2936 2936 2935 2936 2940 2941 2944 2945 2945 2945 2947 2949 2951 2954 2955 2957 2960 2964 2967
2930 2931 2933 2936 2940 2943 2944 2944 2945 2944 2945 2944 2943 2944 2945 2947 2948 2948 2948 2947 2946 2943 2943 2941 2936 2936 2934 2933 2935 2938 2941 2943 2945 2944 2947 2949 2951 2953 2955 2958 2960 2962 2965 2968
2930 2933 2935 2937 2939 2939 2939 2939 2940 2941 2941 2942 2942 2942 2944 2946 2948 2947 2946 2945 2943 2942 2940 2936 2935 2934 2933 2932 2934 2937 2940 2942 2944 2946 2948 2950 2953 2954 2956 2958 2961 2963 2965 2967
2931 2933 2934 2935 2934 2934 2935 2937 2938 2940 2940 2940 2940 2941 2944 2945 2946 2946 2944 2944 2942 2939 2936 2935 2934 2933 2932 2932 2933 2936 2939 2941 2943 2945 2947 2949 2952 2954 2955 2957 2960 2963 2965 2966
2930 2931 2931 2930 2931 2931 2933 2934 2936 2936 2937 2939 2940 2941 2943 2944 2945 2945 2943 2941 2938 2936 2936 2935 2934 2933 2932 2932 2933 2935 2938 2939 2941 2942 2944 2947 2949 2951 2953 2955 2957 2960 2963 2964
2927 2926 2926 2927 2928 2929 2931 2931 2932 2933 2935 2937 2939 2940 2941 2941 2941 2940 2939 2938 2936 2936 2936 2935 2934 2933 2933 2933 2933 2934 2935 2935 2937 2938 2941 2943 2946 2948 2951 2953 2956 2958 2960 2962
2922 2921 2923 2924 2926 2926 2927 2928 2928 2930 2932 2934 2936 2936 2937 2936 2935 2934 2934 2934 2934 2935 2935 2934 2934 2934 2933 2933 2932 2932 2932 2932 2933 2934 2936 2940 2942 2945 2948 2951 2953 2954 2957 2959